ONEWEB-0148

Last updated on April 25, 2021, 12:02 a.m. UTC

1 48059U 21025T   21114.58336806 -.01098118  00000-0 -52753-1 0  9997
2 48059  87.4140 339.3552 0011079 144.8883 280.7317 15.21912549  1789
UTC
Height (km)
Latitude
Longitude
Inclination
Orbital Period
UTC large
Height (km)
Speed (km/s)
/
Latitude / Longitude
Inclination (degrees)
Orbital Period (minutes)
Azimuth
Elevation
Range (km)
Doppler Factor
iOS Compass Heading
iOS Angle

Next 30 passes for location: Hong Kong

Rise time Rise Azimuth (degrees) Set time Set Azimuth (degrees) Duration Max altitude (degrees)

No matching passes for this satellites